Temperature
16 17 16 16 16 16 16 16 16 16 16 16 16 16 16 16 16 16 16 16 16 16 16 16 16 16 16 16 15 15 15 15 15 15 15 15 15 15 15 15 15 15 15
17 17 16 16 16 16 16 16 16 16 16 16 16 16 16 16 16 16 16 16 16 16 16 16 16 16 16 16 15 15 15 15 15 15 15 15 15 15 15 15 15 15 15
17 17 16 16 16 16 16 16 16 16 16 16 16 17 17 17 16 16 16 16 16 16 17 17 16 16 16 16 15 15 15 15 15 15 15 15 15 15 15 15 15 15 15
18 17 16 16 16 16 16 16 16 16 16 16 16 17 17 17 17 16 17 17 17 17 17 17 17 16 16 16 16 15 15 15 15 15 15 15 15 15 15 15 15 15 15
17 17 16 16 16 16 16 16 16 16 17 17 17 17 17 17 17 17 17 17 17 17 17 17 17 16 16 16 16 16 16 15 15 15 15 16 16 16 16 16 16 16 15
17 16 16 16 16 16 16 16 16 16 17 17 17 17 17 17 17 17 17 17 17 17 17 17 17 17 16 16 16 16 16 15 15 15 15 16 16 16 16 16 16 16 16
17 16 16 16 16 16 16 16 16 17 17 17 17 17 18 18 18 18 18 18 17 17 17 17 17 17 16 16 16 16 16 16 15 15 15 15 15 15 15 16 16 16 16
17 16 15 15 16 16 16 16 16 17 17 17 17 18 18 18 18 18 18 18 18 17 17 17 17 17 16 16 16 16 16 15 15 15 15 15 15 15 15 15 15 15 15
16 16 15 15 16 16 16 16 16 17 17 17 17 17 18 18 18 18 18 18 18 17 17 17 17 17 16 16 16 16 16 15 15 15 15 15 15 15 15 15 15 15 15
16 16 15 15 16 16 16 16 17 17 17 17 17 17 17 17 18 18 17 17 17 17 17 17 17 17 16 16 16 16 15 15 15 15 15 15 14 14 14 14 14 14 15
16 16 15 15 15 16 16 16 16 16 17 17 17 17 17 17 17 17 17 17 17 17 17 17 17 16 16 16 16 15 15 15 15 15 15 14 14 14 14 14 14 14 14
16 16 15 15 15 16 16 16 16 16 16 17 17 17 17 17 17 17 17 17 17 17 17 17 16 16 16 16 15 15 15 15 15 15 14 14 14 14 14 14 14 14 14
16 16 15 15 15 16 16 16 16 16 16 16 16 17 17 17 17 17 17 17 17 16 16 16 16 16 16 15 15 15 15 14 14 14 14 14 14 13 13 13 13 13 13
16 16 16 15 15 16 16 16 16 16 16 16 16 16 16 16 16 16 16 16 16 16 16 16 16 15 15 15 15 15 14 14 14 14 14 13 13 13 13 13 13 13 13
16 16 16 16 16 16 16 16 16 16 16 16 16 16 16 16 16 16 16 16 16 16 15 15 15 15 15 15 14 14 14 14 14 14 13 13 13 13 13 12 12 12 12
16 16 16 16 15 15 16 16 16 16 15 15 15 15 15 15 15 15 15 15 15 15 15 15 14 14 14 14 14 14 14 13 13 13 13 13 13 13 12 12 12 12 12
16 16 16 16 15 15 15 15 15 15 15 15 15 15 15 15 15 15 15 15 15 15 14 14 14 14 14 14 14 13 13 13 13 13 13 13 13 12 12 12 12 12 12
16 16 16 16 15 15 15 15 15 15 15 15 14 14 14 14 14 14 14 14 14 14 14 14 14 14 14 13 13 13 13 13 13 13 13 13 13 12 12 12 12 11 12
16 16 16 16 15 15 15 15 15 15 15 14 14 14 14 14 14 14 14 14 14 14 14 14 14 13 13 13 13 13 13 13 13 13 13 13 12 12 12 12 11 11 11
16 16 16 16 15 15 15 15 14 14 14 14 14 14 14 14 14 14 14 14 14 14 13 13 13 13 13 13 13 13 13 13 13 13 13 13 12 12 12 11 11 11 11
15 15 15 15 15 15 15 15 15 14 14 14 14 14 14 14 14 14 14 14 14 13 13 13 13 13 13 13 12 13 13 13 13 13 13 12 12 12 11 11 11 11 10
16 16 15 15 15 15 15 15 15 15 15 14 14 14 14 14 14 14 14 14 14 13 13 13 13 13 13 12 12 11 11 12 12 12 12 12 11 11 11 11 10 10 10
16 16 16 16 16 16 15 15 14 14 14 14 14 14 14 14 14 14 14 14 14 13 13 13 13 12 12 12 12 11 10 10 10 11 11 11 11 10 10 10 10 10 9
16 16 16 16 16 16 15 15 15 15 15 15 15 14 14 14 14 14 14 13 13 13 13 13 12 12 12 12 11 11 10 10 9 9 10 10 10 10 9 9 9 9 9
16 16 16 16 16 16 15 15 15 15 15 15 14 14 14 14 14 14 14 13 13 13 13 12 12 12 12 11 11 10 10 9 9 8 9 9 9 9 9 9 8 8 8
16 16 16 16 16 15 15 15 15 15 15 14 14 14 14 14 14 13 13 13 13 13 12 12 12 11 11 11 10 10 9 9 8 8 8 8 8 8 8 8 8 7 7
Wind_Speed
11 16 22 20 19 18 17 16 16 16 16 16 17 17 18 19 20 21 21 21 21 21 20 20 19 19 18 18 17 17 17 17 17 17 17 17 17 17 16 16 15 14 15
13 20 23 21 20 18 17 17 17 16 17 17 17 18 18 19 20 20 21 21 20 20 19 19 18 18 17 16 15 14 13 13 13 14 14 15 16 16 16 15 14 13 14
17 21 23 22 20 19 18 17 17 17 17 17 17 18 18 19 19 19 20 19 19 19 18 18 17 16 15 14 13 12 12 11 11 11 11 12 13 14 14 14 14 14 14
18 20 21 22 21 19 18 17 17 17 17 17 17 17 18 19 19 18 18 18 18 18 17 17 15 14 13 12 12 12 12 12 12 11 11 11 11 13 13 13 13 13 13
16 19 21 23 21 19 19 18 18 18 17 17 17 17 18 18 18 17 18 17 17 16 16 15 14 13 12 11 11 12 12 12 13 12 11 11 10 12 12 12 12 12 12
12 18 22 22 20 19 19 18 18 18 17 17 18 17 17 18 17 17 17 16 16 15 14 13 12 11 10 10 10 11 11 12 12 11 10 10 9 10 11 11 11 11 11
12 17 21 22 20 19 18 18 18 18 17 17 17 17 17 17 16 16 15 15 14 13 13 11 10 9 8 8 9 10 10 9 9 8 8 8 8 9 9 9 10 10 10
13 16 19 21 20 19 18 18 18 18 17 17 17 17 17 16 16 15 14 13 13 12 11 10 8 7 6 5 6 7 7 6 5 5 6 6 7 7 8 8 8 8 8
14 13 15 18 18 18 18 17 18 18 17 17 16 16 16 15 14 14 12 12 11 10 9 8 6 5 3 3 3 4 4 3 3 3 3 4 5 5 5 6 6 6 7
12 11 12 14 15 15 15 16 17 17 17 16 17 17 16 15 13 12 11 10 9 8 7 6 4 2 1 1 3 4 4 2 1 3 4 6 5 4 4 4 4 4 4
13 11 11 11 13 14 14 15 16 17 17 16 16 16 15 13 12 11 11 10 9 8 6 5 4 3 2 3 5 5 5 3 2 3 5 7 6 5 4 3 2 2 2
14 13 11 10 11 13 12 13 14 13 14 14 14 14 13 12 12 10 11 10 9 7 6 5 5 4 5 6 7 7 6 5 5 6 8 9 8 6 5 5 4 3 2
13 12 11 10 12 11 10 11 11 11 12 12 14 14 12 11 10 9 9 8 8 7 6 6 6 6 6 7 8 8 8 7 7 8 9 11 10 8 7 7 7 6 5
13 12 12 11 11 11 11 10 10 10 9 10 12 13 11 8 7 8 8 8 8 7 7 7 6 7 8 9 10 9 9 8 9 9 11 13 13 11 10 9 8 8 8
13 13 13 12 11 11 10 9 10 10 10 11 12 13 13 9 6 7 7 8 9 9 8 7 7 7 7 7 8 8 7 8 9 10 11 13 15 14 12 11 10 10 10
14 14 12 13 11 10 8 7 8 11 11 12 11 13 14 12 9 7 6 6 7 9 9 8 7 5 4 4 4 5 6 6 7 9 10 12 15 16 15 13 12 11 10
13 13 13 13 11 10 9 8 9 10 11 10 10 12 12 12 10 8 5 4 6 7 7 6 5 3 2 2 3 4 5 6 7 8 9 10 12 14 15 14 12 10 9
11 12 12 12 11 10 7 7 7 9 10 9 10 10 10 11 10 8 4 3 5 4 3 2 1 1 2 2 3 4 4 5 7 8 9 9 9 9 10 11 10 9 7
11 12 11 11 12 10 8 6 6 7 7 8 9 8 8 9 9 7 4 3 4 2 2 1 1 2 2 3 4 4 4 4 5 7 7 8 7 7 6 6 5 4 3
9 10 11 11 10 9 7 4 4 4 4 6 7 8 8 7 8 6 4 2 2 1 1 1 2 2 2 3 4 4 5 5 4 4 5 5 4 3 3 2 2 2 3
8 9 10 10 10 9 6 6 5 5 4 3 4 7 8 7 7 6 3 2 2 2 1 1 1 2 2 1 2 4 4 4 4 4 2 1 1 1 3 4 5 6 6
11 11 11 11 11 10 7 6 4 4 3 3 3 5 7 7 7 5 4 2 2 1 1 0 0 1 1 0 1 2 4 4 4 4 3 2 2 4 6 6 7 7 6
10 11 11 11 11 10 9 5 4 3 3 2 3 3 3 6 7 6 5 3 2 2 1 1 0 1 1 1 1 2 2 3 3 3 4 5 4 4 4 7 8 8 8
10 9 9 10 9 9 9 9 9 7 6 6 5 4 4 6 7 7 6 5 3 2 2 1 1 0 1 2 2 2 3 3 2 2 2 3 5 5 5 5 7 8 8
8 8 8 8 8 8 9 10 10 7 5 4 5 6 4 4 6 7 6 5 3 2 2 2 1 1 0 1 2 1 2 2 3 4 3 1 2 4 5 5 6 7 8
5 6 7 8 7 7 8 8 9 9 8 8 7 7 5 4 3 5 6 5 4 3 2 2 1 1 0 1 1 2 2 2 2 3 4 2 1 2 4 5 5 6 7
Wind_Direction
152 154 148 143 138 133 129 125 122 116 110 107 102 100 99 99 100 102 102 102 101 99 98 96 95 94 94 93 91 88 85 80 76 72 68 68 69 69 69 67 64 62 64
146 151 147 144 140 135 130 127 124 119 114 110 107 104 104 103 102 102 102 102 101 100 98 97 96 96 95 94 91 88 86 83 79 72 67 67 68 68 67 65 63 63 64
144 148 147 144 140 135 132 130 128 122 118 114 111 109 107 106 103 102 102 101 100 99 98 97 97 97 95 92 87 82 82 85 85 77 69 65 68 68 67 64 61 60 61
143 145 146 143 139 137 135 134 131 125 122 118 115 112 110 108 106 105 104 103 102 101 100 100 99 97 94 88 81 76 80 87 89 85 76 70 68 68 66 62 60 59 61
140 144 146 142 140 139 138 136 133 128 125 123 120 116 113 111 110 109 107 106 105 104 103 102 100 96 90 83 75 72 76 90 95 92 87 79 72 71 66 62 58 58 59
134 142 146 142 141 140 140 138 135 132 129 127 125 121 118 116 114 113 111 109 108 107 105 104 101 95 86 77 70 69 79 94 98 97 94 87 79 74 69 65 61 58 57
136 142 145 143 143 142 142 141 139 136 134 131 130 126 124 121 120 118 117 115 113 111 110 108 105 98 88 77 68 68 77 90 97 101 102 97 88 79 73 68 63 60 57
141 144 146 145 144 145 145 143 141 140 138 135 134 131 129 128 126 124 123 122 121 119 116 114 110 103 91 75 64 61 66 77 94 102 112 112 102 89 80 74 67 61 58
143 142 143 144 145 146 146 145 144 143 140 138 138 137 135 134 132 131 130 130 128 126 125 124 121 115 99 68 46 39 39 58 112 133 143 144 128 107 94 85 75 66 62
144 142 140 141 143 144 145 146 145 145 144 144 142 142 141 141 140 140 140 141 141 140 141 144 146 147 136 341 343 352 358 14 164 192 183 177 164 142 125 109 94 79 70
151 148 145 144 144 146 147 148 147 147 148 148 149 150 148 149 150 153 157 158 159 162 166 174 189 218 261 291 304 315 324 308 245 227 212 200 191 181 171 162 147 123 97
161 159 156 153 153 153 153 150 149 151 154 155 159 160 160 162 166 171 175 179 181 186 195 209 226 248 267 281 289 295 292 277 250 240 228 217 210 209 208 206 205 208 207
164 165 164 161 161 161 154 157 159 160 165 167 170 172 172 176 181 182 184 193 200 207 220 239 251 257 262 270 277 279 276 268 251 243 234 224 220 222 226 226 226 229 232
165 171 170 166 167 167 163 168 168 169 175 181 186 185 182 183 185 186 191 200 207 214 226 243 251 258 263 265 263 264 266 263 256 250 243 234 231 232 235 236 238 240 240
171 175 174 169 171 171 170 175 177 181 185 190 192 196 191 183 186 192 201 207 214 219 224 235 245 254 259 260 257 253 254 258 259 256 252 245 241 240 242 243 246 248 250
178 176 172 173 174 172 174 177 179 185 189 190 193 194 191 184 182 184 194 203 213 218 222 225 231 239 250 255 262 262 261 268 270 268 263 257 249 246 246 248 251 255 258
176 174 173 175 176 177 176 177 177 178 179 181 187 188 184 182 179 177 180 193 212 218 219 223 236 241 260 269 277 283 283 284 283 279 273 262 257 253 251 253 257 258 264
173 173 174 175 174 181 183 177 174 175 173 177 180 178 178 179 176 169 169 190 209 206 200 204 227 251 270 279 285 288 290 291 289 285 280 271 263 259 256 254 256 263 272
179 172 172 172 173 178 183 177 173 169 166 169 169 170 174 174 173 166 170 191 195 180 186 206 214 218 257 277 280 280 281 279 278 280 277 274 264 253 247 251 253 262 282
182 174 173 170 174 173 172 166 162 155 161 162 165 168 168 168 168 161 160 174 164 156 206 226 237 240 243 262 280 284 279 276 275 273 274 277 269 248 220 193 149 109 63
179 179 179 175 176 171 172 177 175 178 175 167 163 165 163 160 159 149 141 135 126 154 201 231 236 258 269 273 299 308 303 295 300 301 297 297 343 97 102 107 105 99 82
185 186 186 186 181 180 180 180 178 167 165 165 149 144 152 150 148 144 135 134 122 137 123 75 141 218 264 236 189 307 320 331 340 358 9 35 43 69 75 78 87 87 84
193 192 190 188 183 181 171 155 135 120 112 141 155 146 144 144 137 130 127 120 108 123 132 98 86 179 261 284 202 202 239 268 305 333 21 35 45 56 59 66 70 72 74
200 194 191 185 181 177 168 167 169 176 185 189 170 157 139 130 124 120 115 111 105 109 112 91 77 145 207 255 279 243 227 220 246 297 343 32 43 47 44 55 62 64 63
197 187 184 178 178 176 177 180 179 180 178 149 138 145 138 118 115 115 113 109 104 98 94 78 68 53 179 221 236 261 263 250 228 229 257 295 41 43 45 49 58 59 56
182 174 170 169 175 174 174 176 178 173 164 155 158 160 151 132 110 109 110 107 101 96 87 75 65 64 43 242 242 240 237 240 231 224 237 234 202 81 59 47 48 52 51
Height
1530 1533 1536 1539 1540 1542 1543 1543 1544 1545 1545 1546 1546 1547 1548 1549 1550 1551 1552 1552 1553 1554 1555 1555 1556 1556 1556 1556 1556 1556 1556 1555 1555 1555 1554 1554 1553 1553 1552 1551 1550 1550 1549
1527 1532 1536 1539 1541 1542 1543 1544 1545 1546 1547 1547 1548 1549 1549 1550 1551 1552 1553 1554 1555 1556 1556 1557 1557 1558 1558 1558 1558 1558 1558 1558 1557 1557 1557 1556 1556 1555 1554 1553 1552 1552 1551
1528 1532 1536 1539 1541 1542 1544 1545 1546 1547 1548 1549 1549 1550 1551 1552 1553 1554 1555 1556 1557 1557 1558 1558 1559 1559 1560 1560 1560 1560 1560 1560 1560 1559 1559 1558 1558 1557 1556 1555 1554 1553 1553
1529 1533 1536 1539 1541 1543 1544 1546 1547 1548 1549 1550 1551 1552 1552 1553 1554 1556 1557 1557 1558 1559 1560 1560 1561 1562 1562 1562 1562 1562 1562 1562 1562 1561 1561 1560 1560 1559 1558 1557 1556 1555 1554
1530 1534 1537 1539 1541 1543 1545 1546 1548 1549 1550 1551 1552 1553 1554 1555 1556 1557 1558 1559 1560 1561 1562 1562 1563 1564 1564 1564 1564 1564 1564 1564 1564 1563 1563 1562 1561 1561 1560 1559 1558 1556 1555
1531 1535 1538 1540 1542 1544 1545 1547 1549 1550 1551 1552 1554 1555 1556 1557 1558 1559 1560 1561 1562 1563 1564 1564 1565 1565 1566 1566 1566 1566 1566 1566 1565 1565 1565 1564 1563 1562 1561 1560 1559 1558 1557
1532 1536 1538 1541 1542 1544 1546 1548 1550 1551 1553 1554 1555 1556 1557 1558 1559 1561 1562 1563 1564 1565 1565 1566 1567 1567 1568 1568 1568 1567 1567 1567 1567 1566 1566 1565 1564 1564 1562 1561 1560 1559 1558
1533 1536 1539 1541 1543 1545 1547 1549 1550 1552 1554 1555 1556 1558 1559 1560 1561 1562 1564 1564 1565 1566 1567 1568 1568 1568 1569 1569 1569 1569 1568 1568 1568 1567 1567 1566 1565 1565 1564 1562 1561 1560 1559
1535 1537 1539 1542 1544 1546 1547 1549 1551 1553 1554 1556 1558 1559 1560 1561 1563 1564 1565 1566 1567 1567 1568 1569 1569 1569 1570 1570 1570 1569 1569 1569 1568 1568 1567 1567 1566 1565 1564 1563 1562 1561 1559
1536 1538 1540 1542 1544 1546 1548 1550 1552 1553 1555 1557 1558 1560 1561 1562 1564 1565 1566 1567 1568 1568 1569 1569 1570 1570 1570 1570 1570 1570 1569 1569 1568 1568 1567 1567 1566 1565 1564 1563 1562 1561 1560
1536 1538 1540 1542 1544 1546 1548 1550 1552 1554 1555 1557 1559 1560 1562 1563 1564 1565 1566 1567 1568 1569 1569 1569 1570 1570 1570 1570 1570 1570 1569 1569 1568 1568 1567 1567 1566 1565 1564 1563 1562 1561 1560
1535 1538 1540 1542 1544 1546 1548 1550 1552 1554 1555 1557 1559 1560 1562 1563 1564 1565 1566 1567 1568 1568 1569 1569 1569 1570 1570 1570 1570 1569 1569 1568 1568 1567 1567 1566 1565 1564 1564 1562 1561 1560 1559
1534 1537 1539 1542 1544 1546 1548 1549 1551 1553 1555 1557 1558 1560 1561 1562 1564 1565 1566 1566 1567 1568 1568 1568 1569 1569 1569 1569 1569 1569 1568 1568 1567 1566 1566 1565 1564 1564 1563 1561 1560 1559 1558
1532 1536 1538 1541 1543 1545 1547 1549 1551 1553 1554 1556 1558 1559 1560 1561 1563 1564 1565 1566 1566 1567 1567 1568 1568 1568 1568 1567 1567 1567 1566 1566 1565 1565 1564 1564 1563 1562 1561 1560 1559 1558 1557
1529 1533 1537 1539 1542 1544 1546 1548 1550 1552 1554 1555 1557 1558 1559 1560 1561 1562 1563 1564 1565 1565 1566 1566 1566 1566 1566 1566 1565 1565 1565 1564 1564 1563 1562 1562 1561 1560 1559 1558 1557 1556 1555
1527 1530 1534 1537 1540 1542 1544 1547 1549 1551 1553 1554 1555 1557 1558 1559 1560 1561 1562 1563 1563 1564 1564 1565 1565 1564 1564 1564 1564 1563 1563 1562 1561 1561 1560 1559 1558 1558 1557 1556 1555 1554 1553
1524 1528 1531 1535 1538 1540 1543 1545 1547 1549 1551 1553 1554 1556 1557 1558 1559 1560 1561 1561 1562 1562 1562 1563 1563 1563 1562 1562 1561 1561 1560 1559 1559 1558 1557 1556 1555 1555 1554 1553 1552 1551 1550
1522 1525 1529 1532 1535 1538 1541 1543 1545 1547 1549 1551 1553 1554 1555 1556 1557 1558 1559 1559 1560 1560 1560 1560 1560 1560 1560 1559 1559 1558 1557 1556 1555 1554 1553 1552 1552 1551 1550 1550 1549 1548 1547
1519 1523 1526 1529 1532 1535 1539 1541 1543 1545 1547 1549 1551 1552 1553 1554 1555 1556 1557 1557 1558 1558 1558 1558 1558 1557 1557 1556 1556 1555 1554 1552 1551 1550 1549 1548 1547 1547 1546 1546 1545 1545 1544
1517 1520 1523 1526 1529 1533 1536 1538 1541 1543 1545 1547 1548 1550 1551 1552 1553 1554 1554 1555 1555 1555 1555 1555 1555 1554 1554 1553 1552 1550 1549 1548 1547 1546 1545 1544 1543 1543 1543 1542 1542 1542 1541
1515 1518 1520 1523 1526 1529 1532 1534 1536 1539 1542 1544 1546 1547 1549 1550 1550 1551 1551 1552 1552 1552 1552 1552 1551 1551 1550 1549 1548 1546 1545 1544 1543 1542 1541 1540 1540 1540 1540 1540 1539 1539 1538
1511 1514 1517 1520 1523 1526 1528 1531 1534 1536 1539 1541 1543 1544 1545 1547 1548 1548 1549 1549 1549 1549 1549 1549 1548 1547 1546 1546 1545 1543 1541 1540 1539 1539 1538 1538 1537 1537 1537 1537 1536 1536 1535
1509 1511 1513 1516 1519 1522 1525 1528 1531 1533 1535 1537 1539 1540 1542 1544 1545 1545 1546 1546 1546 1545 1545 1545 1544 1543 1542 1542 1541 1541 1539 1537 1536 1536 1536 1535 1534 1534 1534 1534 1533 1533 1532
1506 1508 1511 1514 1516 1519 1521 1524 1526 1528 1530 1532 1535 1537 1538 1540 1541 1542 1542 1542 1542 1541 1541 1540 1540 1539 1538 1537 1537 1536 1536 1535 1535 1533 1533 1532 1532 1531 1531 1530 1530 1529 1529
1503 1505 1508 1510 1512 1515 1518 1520 1523 1525 1528 1530 1532 1533 1535 1536 1537 1537 1538 1538 1538 1537 1536 1536 1535 1534 1533 1532 1532 1531 1531 1531 1530 1530 1529 1529 1528 1528 1527 1527 1526 1526 1525
1499 1502 1504 1506 1509 1512 1514 1517 1519 1521 1524 1526 1528 1529 1531 1532 1533 1533 1533 1533 1533 1533 1532 1531 1530 1530 1529 1528 1527 1526 1526 1526 1525 1525 1525 1525 1524 1524 1523 1523 1522 1522 1522